Temp
66 65 65 65 65 65 65 65 65 65 66 66 67 67 66 66 64 59 56 68 69 77 76 71 72 73 74 71 72 70 61 58 63 62 68 70 71 71 74 72 73 76 75 76 76
65 65 65 65 65 65 64 64 65 65 66 66 66 66 66 66 58 57 68 72 76 77 70 67 66 67 66 68 68 66 59 61 68 69 69 71 69 71 72 69 72 72 72 73 72
65 65 65 65 64 64 64 64 64 65 65 66 65 65 65 63 56 62 75 75 76 75 70 70 68 66 63 65 66 65 61 65 69 71 72 70 68 71 69 65 73 73 69 70 70
65 65 64 64 64 64 64 64 64 64 65 65 64 65 64 59 53 67 74 74 74 73 70 66 64 62 59 60 66 61 65 68 70 70 68 68 70 69 68 73 72 77 73 70 69
64 64 64 64 64 64 63 64 64 64 65 64 64 65 60 52 55 68 72 69 69 69 66 64 61 61 57 60 63 61 65 68 70 68 70 70 68 70 67 71 72 73 71 70 71
64 64 64 64 63 63 63 63 64 64 64 64 64 64 56 53 67 67 65 65 68 67 65 65 63 64 59 59 60 65 66 68 67 67 69 69 68 69 70 68 69 68 69 71 71
63 63 63 63 62 63 63 63 63 63 63 63 63 62 54 55 66 65 64 64 66 67 63 66 66 63 61 59 63 63 60 62 64 65 66 69 65 65 70 69 66 66 68 69 71
63 63 62 62 62 62 62 63 62 63 64 64 63 60 48 64 64 63 64 65 65 65 65 67 68 63 61 63 61 58 60 53 63 63 65 66 59 67 67 68 65 65 66 66 69
62 62 62 62 61 62 62 62 63 64 64 64 57 54 52 67 61 67 66 65 67 64 64 70 65 60 60 54 51 54 51 51 57 63 61 63 59 65 65 66 64 64 65 66 68
61 61 61 61 61 61 61 62 63 62 62 63 61 52 59 61 64 66 67 65 62 62 61 60 58 53 52 51 41 47 49 51 55 59 60 58 59 61 63 63 64 63 63 64 67
61 61 60 61 61 61 57 56 55 54 56 54 55 55 58 62 65 64 67 63 63 59 51 55 50 45 49 52 54 53 51 54 56 60 58 57 58 60 61 60 62 62 62 64 68
61 60 60 60 60 59 56 54 55 56 46 56 55 56 59 61 55 62 67 59 57 51 54 50 45 53 54 53 53 53 49 53 54 57 59 54 56 59 59 60 62 64 64 64 67
60 60 60 60 59 55 54 55 59 59 46 53 58 57 60 60 57 58 64 59 54 50 50 46 52 56 53 52 49 51 48 51 54 55 57 54 54 57 61 63 63 65 66 65 64
60 59 60 59 56 51 54 58 57 58 42 53 57 62 61 60 56 65 64 61 56 50 49 47 54 53 50 50 52 46 56 55 50 51 48 54 46 52 57 60 61 63 63 64 64
59 59 59 58 50 52 57 55 57 55 35 56 58 69 64 59 60 62 66 61 52 50 52 48 50 49 50 52 54 51 55 53 49 48 49 48 49 53 53 55 59 60 60 62 63
59 59 58 53 50 53 55 54 55 42 37 50 58 56 54 57 58 60 62 63 60 52 51 49 55 52 53 52 52 52 50 48 46 46 42 48 49 49 52 57 56 57 59 60 61
59 58 57 58 53 54 54 53 42 37 52 50 51 53 50 50 52 55 54 51 46 39 41 47 48 52 53 50 52 50 49 37 38 40 40 46 45 53 55 56 57 57 58 58 58
57 57 55 56 54 54 52 48 36 46 46 53 51 50 47 50 51 51 50 48 51 47 40 37 38 47 53 50 48 46 47 37 33 36 41 45 42 51 54 53 53 55 56 55 55
56 49 49 53 54 52 51 39 41 45 51 49 50 45 45 49 49 48 48 49 51 51 39 36 36 50 52 53 52 46 43 51 43 41 40 44 49 54 51 51 51 52 53 53 52
48 48 51 55 54 52 46 42 45 50 52 50 42 46 42 45 46 45 46 52 50 54 54 43 38 48 50 54 54 50 52 44 43 37 37 41 42 48 49 50 50 51 52 51 51
49 49 55 55 53 48 41 41 47 54 53 49 46 45 45 44 44 44 47 51 51 52 53 47 44 45 49 47 46 49 47 46 47 43 39 39 45 52 52 51 50 52 52 52 51
45 46 55 54 46 36 40 45 50 51 53 51 50 49 47 46 45 45 47 51 51 51 48 52 46 38 42 53 54 52 50 48 43 39 40 39 46 54 52 52 53 52 51 52 52
43 43 53 54 41 39 42 47 50 49 50 50 49 51 50 47 44 46 48 54 52 51 48 49 46 39 41 48 50 48 50 48 47 44 39 40 47 52 51 49 52 52 51 51 51
43 42 46 45 42 41 39 42 45 50 49 50 49 50 47 46 48 46 48 52 52 51 57 51 45 43 39 43 46 44 47 48 47 41 42 43 48 53 53 50 49 51 52 51 51
42 42 42 40 41 39 41 42 42 44 48 49 46 45 44 41 44 44 47 48 50 54 50 48 42 44 45 45 46 46 47 46 44 46 45 46 44 51 53 52 52 53 50 49 50
43 42 41 39 40 38 40 40 42 44 44 45 43 45 44 42 45 42 45 44 45 48 47 46 43 42 42 47 46 43 46 46 45 45 44 45 46 52 50 50 50 51 50 50 50
41 43 44 41 37 38 38 41 43 44 47 48 45 43 43 46 48 49 48 48 47 45 44 43 41 38 38 42 43 41 46 45 46 47 48 44 50 52 50 50 50 50 50 50 49
MSLP
1021.10 1020.73 1020.45 1020.46 1020.34 1019.91 1019.77 1019.48 1019.21 1018.78 1018.44 1018.17 1017.59 1017.13 1016.77 1016.31 1015.86 1015.40 1014.99 1014.40 1014.33 1013.43 1012.87 1012.91 1012.59 1012.37 1012.32 1012.20 1012.10 1012.06 1012.11 1011.33 1010.97 1010.74 1010.00 1010.08 1010.23 1010.47 1010.77 1010.94 1011.07 1011.29 1011.60 1012.00 1012.95
1021.00 1020.54 1020.67 1020.46 1020.17 1019.87 1019.77 1019.36 1019.11 1018.82 1018.38 1017.99 1017.54 1017.35 1016.69 1016.01 1015.83 1015.07 1014.29 1014.14 1013.59 1013.50 1013.19 1013.11 1012.98 1012.83 1012.70 1012.39 1012.11 1011.90 1011.46 1010.87 1010.42 1010.27 1009.87 1009.94 1010.51 1010.46 1010.94 1011.06 1011.21 1011.45 1012.05 1012.52 1013.32
1021.00 1020.88 1020.72 1020.38 1020.08 1019.79 1019.39 1019.20 1019.18 1018.61 1018.38 1017.84 1017.67 1017.33 1016.71 1016.04 1015.62 1014.77 1013.83 1013.83 1013.76 1013.42 1013.40 1013.35 1013.28 1013.20 1012.95 1012.57 1012.00 1011.54 1010.75 1010.63 1010.11 1009.98 1009.96 1010.03 1010.59 1010.65 1010.74 1011.26 1010.55 1010.32 1011.63 1012.68 1013.38
1021.06 1020.84 1020.51 1020.12 1019.79 1019.54 1019.30 1019.13 1018.88 1018.54 1018.20 1017.87 1017.62 1017.22 1016.43 1016.26 1015.62 1014.33 1013.91 1013.88 1013.78 1013.45 1013.40 1013.55 1013.63 1013.34 1013.31 1012.61 1011.95 1011.59 1010.75 1010.33 1010.00 1009.86 1010.03 1010.04 1010.25 1010.60 1010.46 1010.00 1010.45 1010.38 1011.07 1012.23 1012.99
1020.90 1020.60 1020.27 1019.97 1019.69 1019.44 1019.15 1018.79 1018.44 1018.12 1017.94 1017.84 1017.62 1017.20 1016.82 1016.35 1015.11 1013.99 1014.02 1014.06 1013.75 1013.55 1013.59 1013.55 1013.75 1013.63 1013.13 1012.63 1012.08 1011.40 1010.76 1010.27 1009.84 1009.83 1009.72 1009.73 1009.85 1010.12 1010.11 1010.26 1010.41 1010.62 1011.17 1011.60 1012.25
1020.80 1020.53 1020.25 1019.96 1019.66 1019.34 1018.93 1018.59 1018.28 1017.95 1017.77 1017.73 1017.68 1017.43 1017.33 1015.99 1013.98 1013.98 1014.08 1013.98 1013.88 1013.68 1013.67 1013.64 1013.47 1013.47 1013.42 1012.79 1012.25 1011.14 1010.57 1010.28 1009.94 1009.74 1009.69 1009.69 1009.76 1010.07 1009.99 1010.33 1010.59 1011.10 1011.38 1011.48 1011.75
1020.75 1020.49 1020.24 1020.01 1019.68 1019.25 1018.77 1018.37 1018.01 1017.64 1017.41 1017.43 1017.58 1017.51 1017.35 1015.08 1014.03 1014.09 1014.14 1013.81 1013.65 1013.65 1013.66 1013.47 1013.55 1013.60 1013.54 1012.88 1012.17 1011.36 1010.94 1010.45 1009.93 1009.81 1009.60 1009.68 1009.85 1009.81 1010.02 1010.28 1010.83 1011.51 1011.77 1011.92 1012.04
1020.63 1020.40 1020.14 1019.84 1019.51 1019.08 1018.51 1018.03 1017.53 1017.11 1016.82 1017.02 1017.43 1017.59 1016.52 1014.17 1014.11 1014.09 1013.71 1013.45 1013.48 1013.71 1013.86 1013.51 1013.49 1013.69 1013.43 1012.91 1012.11 1011.52 1011.09 1010.46 1009.69 1009.80 1009.79 1009.81 1009.31 1009.67 1010.07 1010.37 1011.10 1011.60 1012.14 1012.20 1012.45
1020.62 1020.38 1020.06 1019.76 1019.34 1018.78 1018.08 1017.57 1016.96 1016.91 1016.87 1017.09 1017.72 1017.59 1015.46 1013.83 1013.87 1013.39 1013.35 1013.32 1013.30 1013.53 1013.67 1013.56 1013.69 1013.76 1013.52 1013.29 1012.86 1011.78 1010.44 1010.44 1010.24 1009.84 1009.80 1009.97 1009.92 1009.80 1010.31 1010.52 1011.01 1011.62 1011.81 1012.10 1012.18
1020.62 1020.35 1020.06 1019.75 1019.32 1018.70 1017.82 1017.12 1016.97 1017.07 1017.28 1017.29 1017.43 1017.57 1014.95 1014.14 1013.60 1013.08 1012.98 1013.22 1013.39 1013.59 1013.72 1013.75 1013.81 1013.85 1013.71 1013.32 1012.32 1011.85 1011.12 1010.53 1010.02 1010.09 1010.07 1010.13 1009.98 1010.21 1010.46 1010.80 1010.79 1011.37 1011.58 1011.83 1011.85
1020.54 1020.28 1020.01 1019.69 1019.27 1018.79 1018.08 1017.38 1017.76 1017.56 1017.29 1016.94 1016.75 1016.39 1014.96 1014.11 1013.51 1012.92 1012.81 1013.21 1013.43 1013.74 1013.92 1013.81 1013.86 1013.37 1013.20 1012.79 1012.38 1011.70 1011.19 1010.32 1009.90 1009.74 1009.85 1009.96 1009.97 1010.13 1010.57 1010.91 1011.02 1011.23 1011.47 1011.61 1011.66
1020.29 1020.10 1019.87 1019.60 1019.14 1018.70 1018.58 1019.14 1019.65 1019.63 1018.36 1016.41 1016.07 1015.78 1014.95 1014.60 1013.85 1012.91 1012.81 1013.22 1013.42 1013.64 1013.74 1014.05 1013.13 1012.39 1012.48 1012.55 1012.27 1011.63 1011.39 1010.25 1010.13 1009.98 1009.99 1010.16 1010.09 1010.13 1010.41 1010.50 1010.74 1010.84 1011.09 1011.36 1011.61
1020.21 1019.95 1019.66 1019.32 1019.02 1019.02 1019.44 1019.70 1019.62 1019.51 1019.19 1016.07 1015.22 1014.86 1014.29 1014.39 1013.77 1012.63 1012.57 1012.75 1013.11 1013.32 1013.34 1013.48 1011.96 1011.81 1012.11 1011.99 1011.91 1011.28 1011.35 1010.61 1010.07 1010.16 1010.31 1010.35 1010.39 1010.14 1010.01 1010.24 1010.52 1010.60 1010.83 1011.18 1011.18
1020.18 1019.89 1019.52 1019.25 1019.18 1019.88 1019.66 1019.43 1019.55 1019.51 1018.75 1016.00 1014.51 1013.43 1013.67 1013.68 1013.16 1012.07 1012.24 1012.68 1013.05 1013.41 1013.29 1013.02 1011.73 1011.62 1011.82 1011.43 1011.35 1010.91 1010.67 1010.83 1010.70 1010.46 1010.59 1010.66 1010.25 1009.94 1009.79 1009.81 1010.03 1010.36 1010.69 1010.95 1011.11
1020.16 1019.91 1019.60 1019.18 1019.69 1019.75 1019.58 1019.35 1019.32 1019.39 1017.82 1015.25 1013.65 1012.62 1012.89 1013.43 1013.12 1011.85 1011.84 1012.41 1012.91 1012.98 1013.72 1012.23 1011.83 1011.35 1011.18 1010.89 1010.87 1010.71 1010.51 1010.90 1011.03 1011.02 1011.00 1011.03 1010.77 1009.90 1009.97 1009.91 1009.77 1010.09 1010.71 1011.00 1011.28
1019.98 1019.89 1019.71 1019.65 1019.94 1019.51 1019.34 1019.17 1019.22 1018.97 1017.03 1015.02 1013.82 1013.36 1013.43 1013.18 1013.12 1012.45 1012.29 1012.52 1012.96 1013.14 1012.97 1012.51 1011.79 1011.36 1010.95 1010.98 1010.86 1010.94 1011.16 1011.49 1012.19 1011.70 1011.50 1010.92 1010.84 1009.94 1009.86 1009.69 1010.03 1010.34 1010.76 1011.25 1011.58
1019.78 1019.68 1019.70 1019.57 1019.70 1019.39 1019.17 1019.25 1019.13 1017.93 1016.75 1015.64 1014.90 1014.45 1014.54 1014.12 1013.51 1013.16 1012.79 1012.87 1013.69 1014.01 1013.63 1012.76 1012.21 1011.81 1011.29 1011.01 1011.24 1011.19 1011.48 1012.28 1012.23 1011.78 1011.44 1011.12 1011.09 1009.98 1009.87 1010.12 1010.46 1010.60 1011.09 1011.64 1012.06
1019.60 1019.51 1019.58 1019.45 1019.34 1019.28 1019.27 1019.22 1018.67 1017.44 1016.65 1015.82 1015.49 1015.11 1014.99 1014.62 1014.00 1013.77 1013.63 1013.63 1013.94 1014.39 1014.63 1014.25 1013.01 1012.45 1011.81 1011.56 1011.44 1011.55 1011.76 1012.39 1011.86 1011.73 1011.63 1011.47 1010.90 1009.80 1010.16 1010.69 1011.02 1011.27 1011.71 1012.19 1012.48
1019.41 1019.68 1019.70 1019.17 1019.10 1019.49 1019.36 1019.47 1018.29 1017.20 1016.53 1016.26 1015.80 1015.64 1015.35 1015.13 1014.82 1014.39 1014.10 1013.76 1013.73 1013.97 1014.96 1015.23 1014.23 1012.93 1012.25 1011.77 1011.71 1011.76 1011.70 1011.83 1011.52 1012.04 1011.67 1011.26 1010.55 1009.87 1010.54 1011.16 1011.59 1011.95 1012.34 1012.93 1013.18
1019.96 1019.97 1019.70 1019.20 1019.21 1019.35 1019.63 1019.30 1018.23 1017.25 1016.61 1016.41 1016.45 1016.19 1016.04 1015.52 1015.21 1014.64 1014.28 1013.80 1013.79 1013.84 1013.95 1014.92 1014.69 1013.31 1012.28 1011.67 1011.48 1011.25 1011.22 1011.59 1011.62 1011.86 1011.61 1011.11 1010.73 1010.18 1010.63 1011.20 1011.81 1012.34 1012.77 1013.38 1013.81
1020.06 1020.06 1019.57 1019.33 1019.33 1019.47 1020.02 1019.43 1018.25 1017.03 1016.83 1016.61 1016.28 1016.27 1016.07 1015.88 1015.45 1014.91 1014.33 1013.85 1013.83 1013.83 1013.87 1014.43 1014.66 1013.70 1012.48 1012.08 1011.84 1011.42 1011.33 1011.58 1011.75 1012.18 1012.05 1011.50 1010.24 1009.82 1010.30 1010.85 1011.67 1012.45 1013.09 1013.74 1014.30
1020.29 1020.40 1019.48 1019.30 1020.04 1020.53 1020.15 1019.34 1018.33 1017.31 1016.60 1016.48 1016.26 1016.09 1015.93 1015.73 1015.41 1014.93 1014.46 1013.78 1013.70 1013.98 1013.93 1014.06 1014.15 1013.95 1013.59 1011.88 1011.86 1011.57 1011.27 1011.44 1011.84 1012.68 1012.69 1012.46 1010.45 1009.95 1010.46 1010.91 1011.62 1012.57 1013.43 1014.22 1014.86
1020.90 1020.59 1019.77 1019.40 1020.42 1020.75 1020.02 1019.22 1018.32 1017.53 1017.02 1016.65 1016.38 1016.19 1015.99 1015.82 1015.62 1014.88 1014.34 1013.57 1013.56 1013.76 1014.12 1014.18 1013.85 1013.81 1013.32 1012.47 1011.89 1011.69 1011.47 1011.69 1011.96 1012.33 1012.55 1012.14 1010.56 1010.20 1010.60 1011.18 1011.81 1012.65 1013.71 1014.59 1015.29
1021.42 1021.34 1020.72 1020.80 1021.08 1020.94 1020.38 1019.50 1018.64 1017.65 1017.35 1017.05 1016.75 1016.35 1016.45 1016.03 1015.62 1015.22 1014.62 1013.89 1013.86 1013.79 1013.98 1014.22 1014.23 1013.92 1013.35 1012.57 1012.22 1011.93 1011.77 1011.84 1011.98 1012.44 1012.23 1011.61 1010.81 1010.40 1010.93 1011.58 1012.31 1013.04 1013.93 1014.73 1015.41
1021.54 1021.93 1021.67 1021.66 1021.57 1021.26 1020.88 1019.92 1019.09 1018.42 1017.79 1017.44 1017.30 1017.50 1017.55 1017.10 1016.32 1015.81 1015.29 1014.73 1014.22 1014.05 1014.07 1014.28 1014.55 1014.22 1013.24 1012.43 1012.42 1011.89 1011.63 1011.78 1012.04 1011.97 1011.95 1011.43 1011.44 1010.92 1011.15 1011.56 1012.28 1013.00 1014.07 1014.90 1015.59
1021.35 1021.88 1022.19 1021.97 1021.94 1021.51 1020.91 1020.44 1019.54 1018.97 1018.55 1018.01 1017.99 1017.88 1017.60 1017.55 1016.89 1016.60 1016.17 1015.78 1015.18 1014.80 1014.67 1014.95 1014.80 1014.53 1013.71 1012.73 1012.24 1012.11 1011.62 1011.60 1011.90 1011.88 1011.72 1011.59 1011.41 1011.00 1011.59 1012.06 1012.72 1013.27 1014.10 1014.81 1015.48
1021.41 1021.32 1021.50 1022.00 1022.00 1021.89 1021.01 1020.28 1019.80 1019.57 1018.71 1018.40 1018.53 1018.64 1017.91 1017.15 1016.88 1016.32 1016.05 1015.84 1015.75 1015.86 1015.60 1015.55 1015.43 1015.35 1014.24 1013.27 1012.59 1012.15 1011.14 1011.23 1011.38 1011.41 1011.39 1011.65 1011.50 1011.57 1012.26 1012.81 1013.29 1013.70 1014.24 1014.83 1015.51
Wind_Speed
9 9 10 11 11 10 11 12 12 12 13 14 15 17 18 19 22 4 1 3 3 13 11 6 3 3 1 2 2 4 3 7 8 7 4 3 6 1 0 5 3 6 4 2 21
9 10 10 10 10 11 10 11 12 11 11 13 15 17 20 20 6 4 5 7 13 18 6 5 3 6 1 3 3 5 5 10 5 4 4 4 3 6 4 4 4 4 5 15 21
10 10 10 10 10 11 11 11 12 12 13 13 14 16 19 13 1 2 5 3 9 11 2 2 1 2 2 2 4 4 9 5 5 5 3 3 3 5 7 5 9 16 15 19 22
10 11 11 13 13 14 15 14 14 14 14 14 15 16 18 3 3 3 8 10 15 8 1 2 2 1 2 6 4 5 7 6 5 6 6 6 5 5 9 8 4 8 19 21 22
11 12 14 14 15 16 17 17 17 16 15 14 13 14 6 4 5 3 8 8 6 4 1 3 2 2 4 3 4 6 4 6 5 7 4 6 6 5 9 7 5 8 20 23 21
12 13 14 15 17 18 19 19 19 18 16 13 11 11 2 4 1 1 6 5 2 1 1 3 5 3 4 4 4 3 11 12 6 6 5 7 4 6 2 2 2 11 17 19 22
13 13 15 16 17 18 19 19 19 19 16 11 7 4 2 10 1 5 6 3 3 2 2 3 2 3 1 5 4 5 8 4 8 6 6 4 4 7 3 3 6 9 10 12 16
11 13 14 16 17 20 21 20 20 17 11 7 5 0 8 3 2 8 3 4 3 3 3 4 1 3 3 4 9 6 6 11 6 8 2 7 13 5 4 8 8 8 8 8 11
11 12 14 16 17 20 23 24 13 3 5 8 3 2 9 3 3 4 5 2 0 2 1 2 2 3 2 4 6 4 12 11 4 6 5 6 4 4 3 6 9 8 9 8 10
11 12 14 15 17 20 24 19 1 6 4 4 2 1 5 3 6 4 1 1 1 2 2 2 1 2 1 5 11 7 8 4 15 6 2 6 3 2 2 4 7 8 6 10 12
11 12 13 15 17 19 12 4 7 3 2 4 3 5 7 7 5 2 2 3 3 2 3 4 4 11 11 10 11 4 6 11 5 7 6 9 6 8 5 3 6 7 10 11 13
9 11 12 14 16 16 2 6 3 2 9 5 5 6 7 2 6 3 4 3 3 4 2 1 12 14 12 12 13 19 14 12 2 3 4 5 10 5 7 6 8 10 9 9 6
10 11 12 13 15 4 2 3 2 2 2 8 5 4 6 4 4 6 7 2 5 3 5 8 14 8 12 13 12 16 13 10 7 5 2 5 5 6 6 10 7 7 6 7 9
10 10 11 18 4 3 2 3 5 2 4 6 3 3 3 3 5 5 5 3 1 4 2 8 7 13 8 14 14 12 11 8 7 6 5 1 3 4 6 8 8 10 8 8 7
9 8 8 4 2 2 2 4 2 2 5 8 5 2 6 3 5 2 2 3 1 10 4 10 5 6 11 8 11 8 4 6 3 3 2 1 2 4 1 5 10 8 7 6 5
9 7 5 2 1 2 5 3 2 5 3 7 4 6 8 3 3 6 2 3 1 7 3 9 2 1 2 2 2 9 6 8 2 3 3 4 4 4 5 5 0 3 7 7 4
9 8 4 0 1 2 3 2 5 4 4 7 5 6 3 5 6 3 2 3 3 9 10 7 5 4 3 4 4 3 5 1 2 3 3 0 4 9 3 2 2 5 8 4 1
11 7 2 2 1 3 2 5 0 1 3 3 4 6 4 6 3 6 5 3 3 3 4 8 6 8 6 3 1 1 8 3 4 5 4 2 5 5 0 2 3 1 4 1 1
7 2 1 3 1 2 5 3 5 4 2 5 7 4 5 3 1 6 2 3 3 5 4 7 6 6 2 3 1 2 6 5 4 2 1 1 5 4 1 2 2 3 3 2 2
2 2 2 4 3 3 5 4 4 2 3 1 2 1 3 5 6 5 4 3 5 2 5 7 5 3 6 1 1 4 5 3 3 1 2 2 4 4 2 6 5 4 4 3 4
3 3 3 3 2 5 3 5 5 5 3 5 3 3 5 4 2 3 4 4 3 5 0 7 4 7 6 3 2 2 1 5 5 3 1 3 3 4 3 5 9 6 4 4 6
2 2 2 1 4 1 2 3 3 5 1 4 3 5 4 2 4 3 4 5 2 0 5 2 3 2 7 6 3 4 1 3 3 3 2 1 5 1 2 3 8 8 6 6 7
2 2 2 2 0 2 4 4 4 3 3 4 4 2 2 4 4 4 3 4 2 3 3 3 1 1 4 4 3 2 0 4 4 3 6 3 4 1 3 1 7 10 8 8 9
2 2 4 4 1 2 2 3 5 3 3 3 4 4 5 4 2 5 3 3 5 0 3 2 2 3 3 2 2 3 3 3 3 2 5 6 5 5 3 2 5 6 8 10 9
3 2 2 2 2 0 2 2 2 4 3 5 2 5 2 4 5 3 3 6 4 5 3 3 2 3 7 6 3 3 4 5 6 3 5 1 4 6 4 4 8 8 9 10 10
4 4 1 1 1 1 1 4 3 3 2 5 1 7 2 4 4 6 4 3 5 5 5 3 2 4 4 3 3 4 6 3 4 4 6 3 7 5 3 3 5 8 10 11 10
1 1 4 1 2 2 4 4 2 1 4 4 1 4 7 5 4 10 8 6 4 3 2 2 2 4 5 4 4 4 3 3 2 3 4 4 4 2 2 3 4 6 9 9 9
Wind_Direction
340 347 349 340 338 344 338 338 336 338 339 334 337 337 332 329 326 354 12 206 269 338 342 300 306 345 112 244 176 140 201 215 210 184 219 145 184 157 11 129 197 175 154 52 144
342 347 335 337 333 337 329 331 327 324 327 326 332 330 329 331 326 316 253 269 293 337 354 12 19 344 234 229 199 196 210 209 202 212 205 157 193 163 177 156 212 165 72 133 146
337 335 331 332 328 323 327 322 314 318 317 324 327 328 326 335 356 43 63 337 333 336 285 350 324 12 243 222 204 194 233 206 221 204 169 141 165 211 151 226 215 196 154 155 160
334 333 334 334 336 331 325 323 321 318 317 322 326 327 326 313 61 210 5 353 338 326 119 58 11 140 255 227 227 239 224 201 223 196 165 180 145 202 200 208 322 216 160 159 171
340 340 339 336 335 331 327 324 321 319 317 317 323 332 357 358 251 256 338 343 328 357 4 127 143 228 206 233 247 239 250 226 218 186 206 149 196 204 225 236 328 156 163 173 179
342 341 338 337 333 330 327 322 318 312 308 304 313 327 33 343 246 286 349 333 309 40 211 180 197 213 280 266 235 287 220 235 220 208 212 198 163 156 212 197 127 163 189 181 181
343 340 339 336 330 327 322 319 315 307 298 283 286 307 323 236 230 319 309 235 204 192 232 217 253 171 83 281 345 271 266 262 213 197 212 181 205 205 131 150 176 199 193 193 187
343 340 337 333 330 325 321 319 311 304 295 240 210 198 250 244 280 292 219 285 216 236 252 273 131 244 194 291 328 231 223 235 196 162 198 197 235 199 144 151 156 161 177 179 196
345 341 336 334 332 329 323 322 319 7 88 138 133 143 273 347 299 254 200 263 239 130 227 325 139 227 191 227 282 257 229 224 237 208 139 191 215 157 146 171 164 178 178 198 203
343 340 338 336 333 332 325 324 319 95 106 158 166 306 266 289 281 294 202 262 298 39 107 137 144 217 210 188 225 246 223 212 215 184 182 174 221 185 128 190 189 198 195 211 215
339 337 339 336 334 332 340 11 9 353 29 249 236 249 292 303 271 276 227 135 156 183 193 205 193 222 215 209 219 243 271 206 196 190 159 196 190 200 197 228 217 217 211 213 217
336 337 337 334 328 328 16 70 110 230 314 270 251 263 271 251 320 256 148 165 164 237 187 217 233 225 212 220 225 239 263 235 103 153 188 171 224 215 200 220 221 221 215 203 190
338 336 334 335 322 31 14 82 340 163 266 293 217 244 268 154 275 278 161 155 213 237 211 222 244 225 211 225 218 231 231 261 204 133 72 128 250 220 225 229 225 226 221 223 216
335 336 339 330 74 322 49 326 328 199 29 293 321 268 173 219 275 220 206 186 282 307 303 259 273 234 225 227 206 216 198 217 150 158 178 296 244 236 219 231 213 212 213 219 219
337 335 350 15 192 101 279 320 315 75 38 317 291 141 311 169 303 298 167 73 99 271 248 255 268 215 234 217 201 232 123 131 29 80 134 98 208 263 186 244 240 205 199 191 173
337 332 357 37 22 252 308 301 87 43 324 331 324 338 352 2 309 308 51 33 12 296 218 277 283 304 189 100 321 147 81 43 70 144 215 211 209 245 200 212 187 212 191 178 171
325 315 305 163 302 300 333 53 30 113 355 313 317 347 332 302 315 343 319 16 47 353 348 330 342 320 17 97 38 71 119 358 154 187 210 17 191 249 193 196 231 223 190 182 192
322 321 316 226 285 16 42 46 222 260 266 324 325 307 335 355 296 324 358 335 153 98 359 357 326 4 355 24 116 126 116 196 156 172 179 111 212 251 344 318 304 97 139 127 6
338 1 359 280 261 119 72 42 227 211 290 334 319 3 322 332 308 9 343 286 225 194 62 347 319 320 338 321 180 155 125 231 109 66 185 199 267 255 110 89 88 114 118 106 86
43 5 329 323 104 63 77 237 271 272 337 44 285 207 295 301 355 31 324 292 331 5 143 207 301 360 298 300 97 197 157 144 19 223 239 289 276 257 208 208 179 181 164 121 104
47 42 291 16 60 52 163 233 288 267 218 198 242 279 248 278 242 292 268 300 28 320 130 155 193 336 353 13 319 22 45 56 97 95 60 339 283 209 222 207 187 187 169 140 117
85 4 299 80 38 22 166 206 288 285 315 276 248 216 237 272 275 276 271 217 61 322 332 115 207 159 255 264 286 285 184 124 121 180 83 313 283 98 302 260 180 173 156 129 118
86 253 319 88 216 299 295 280 254 305 311 319 292 215 212 273 297 222 284 277 35 42 42 347 244 335 211 322 345 311 77 95 93 88 179 176 262 109 29 164 178 158 150 135 128
80 352 332 47 85 159 309 277 299 285 248 306 279 33 351 305 230 298 295 305 339 82 72 152 282 239 242 250 172 258 192 156 131 142 175 231 291 322 344 155 162 152 154 148 148
53 251 185 302 346 208 306 278 282 309 337 346 57 88 354 295 314 281 306 315 312 349 62 94 271 219 275 260 235 256 252 165 187 190 202 272 212 275 303 238 187 170 149 153 161
139 141 6 128 340 155 205 262 237 311 226 291 342 326 192 231 233 281 344 251 257 334 17 2 283 353 277 320 274 262 276 239 202 202 256 266 281 227 42 65 144 163 163 172 177
228 44 110 254 104 111 229 241 201 292 272 244 30 342 309 257 249 244 224 244 257 328 300 42 42 16 276 345 297 320 274 201 220 199 164 184 248 21 52 90 137 174 183 178 170